Time,TemperatureF,DewpointF,PressureIn,WindDirection,WindDirectionDegrees,WindSpeedMPH,WindSpeedGustMPH,Humidity,HourlyPrecipIn,Conditions,Clouds,dailyrainin,SoftwareType,DateUTC
2013-09-11 00:01:00,74.9,65.7,30.10,North,353,2.2,2.2,73,0.00,,,0.00,VWS V13.01,2013-09-11 05:01:00,
2013-09-11 00:06:00,74.9,65.7,30.10,North,353,0.0,0.0,73,0.00,,,0.00,VWS V13.01,2013-09-11 05:06:00,
2013-09-11 00:11:00,74.7,65.5,30.10,North,354,0.0,0.0,73,0.00,,,0.00,VWS V13.01,2013-09-11 05:11:00,
2013-09-11 00:16:00,74.5,65.3,30.10,North,354,0.0,0.0,73,0.00,,,0.00,VWS V13.01,2013-09-11 05:16:00,
2013-09-11 00:21:00,74.5,65.7,30.10,North,354,0.0,0.0,74,0.00,,,0.00,VWS V13.01,2013-09-11 05:21:00,
2013-09-11 00:26:00,74.3,65.5,30.10,North,354,0.0,0.0,74,0.00,,,0.00,VWS V13.01,2013-09-11 05:26:00,
2013-09-11 00:31:00,74.2,65.3,30.10,North,354,0.0,0.0,74,0.00,,,0.00,VWS V13.01,2013-09-11 05:31:00,
2013-09-11 00:36:00,74.0,65.2,30.10,North,354,0.0,0.0,74,0.00,,,0.00,VWS V13.01,2013-09-11 05:36:00,
2013-09-11 00:41:00,74.0,65.2,30.10,North,354,0.0,0.0,74,0.00,,,0.00,VWS V13.01,2013-09-11 05:41:00,
2013-09-11 00:46:00,73.8,65.0,30.13,North,354,0.0,0.0,74,0.00,,,0.00,VWS V13.01,2013-09-11 05:46:00,
2013-09-11 00:51:00,73.6,64.8,30.13,North,354,0.0,0.0,74,0.00,,,0.00,VWS V13.01,2013-09-11 05:51:00,
2013-09-11 00:56:00,73.6,65.6,30.13,North,354,0.0,0.0,76,0.00,,,0.00,VWS V13.01,2013-09-11 05:56:00,
2013-09-11 01:01:00,73.4,65.8,30.13,North,354,0.0,0.0,77,0.00,,,0.00,VWS V13.01,2013-09-11 06:01:00,
2013-09-11 01:06:00,73.4,66.2,30.13,NNW,332,0.0,0.0,78,0.00,,,0.00,VWS V13.01,2013-09-11 06:06:00,
2013-09-11 01:11:00,73.4,65.8,30.13,NNW,332,0.0,0.0,77,0.00,,,0.00,VWS V13.01,2013-09-11 06:11:00,
2013-09-11 01:16:00,73.4,65.8,30.10,NNW,332,0.0,0.0,77,0.00,,,0.00,VWS V13.01,2013-09-11 06:16:00,
2013-09-11 01:21:00,73.4,65.8,30.10,NNW,332,0.0,0.0,77,0.00,,,0.00,VWS V13.01,2013-09-11 06:21:00,
2013-09-11 01:26:00,73.3,66.0,30.10,NNW,332,0.0,0.0,78,0.00,,,0.00,VWS V13.01,2013-09-11 06:26:00,
2013-09-11 01:31:00,73.1,65.8,30.13,NNW,332,0.0,0.0,78,0.00,,,0.00,VWS V13.01,2013-09-11 06:31:00,
2013-09-11 01:36:00,72.9,65.7,30.13,NNW,332,0.0,0.0,78,0.00,,,0.00,VWS V13.01,2013-09-11 06:36:00,
2013-09-11 01:41:00,72.7,65.5,30.13,NNW,332,0.0,0.0,78,0.00,,,0.00,VWS V13.01,2013-09-11 06:41:00,
2013-09-11 01:46:00,72.7,65.5,30.13,NNW,332,0.0,0.0,78,0.00,,,0.00,VWS V13.01,2013-09-11 06:46:00,
2013-09-11 01:50:00,72.5,65.3,30.13,NNW,332,0.0,0.0,78,0.00,,,0.00,VWS V13.01,2013-09-11 06:50:00,
2013-09-11 01:55:00,72.5,65.7,30.13,NNW,332,0.0,0.0,79,0.00,,,0.00,VWS V13.01,2013-09-11 06:55:00,
2013-09-11 02:00:00,72.4,65.5,30.13,NNW,332,0.0,0.0,79,0.00,,,0.00,VWS V13.01,2013-09-11 07:00:00,
2013-09-11 02:05:00,72.2,65.7,30.13,NNW,335,0.0,0.0,80,0.00,,,0.00,VWS V13.01,2013-09-11 07:05:00,
2013-09-11 02:10:00,72.2,65.7,30.13,NNW,335,0.0,0.0,80,0.00,,,0.00,VWS V13.01,2013-09-11 07:10:00,
2013-09-11 02:15:00,72.0,65.9,30.13,NNW,335,0.0,0.0,81,0.00,,,0.00,VWS V13.01,2013-09-11 07:15:00,
2013-09-11 02:20:00,72.0,65.9,30.13,NNW,335,0.0,0.0,81,0.00,,,0.00,VWS V13.01,2013-09-11 07:20:00,
2013-09-11 02:25:00,72.0,65.9,30.13,NNW,335,0.0,0.0,81,0.00,,,0.00,VWS V13.01,2013-09-11 07:25:00,
2013-09-11 02:30:00,72.0,66.2,30.13,NNW,335,0.0,0.0,82,0.00,,,0.00,VWS V13.01,2013-09-11 07:30:00,
2013-09-11 02:35:00,71.8,66.7,30.13,NNW,335,0.0,0.0,84,0.00,,,0.00,VWS V13.01,2013-09-11 07:35:00,
2013-09-11 02:40:00,71.8,67.4,30.13,NNW,335,0.0,0.0,86,0.00,,,0.00,VWS V13.01,2013-09-11 07:40:00,
2013-09-11 02:45:00,71.6,67.2,30.13,NNW,335,0.0,0.0,86,0.00,,,0.00,VWS V13.01,2013-09-11 07:45:00,
2013-09-11 02:50:00,71.6,67.6,30.13,NNW,335,0.0,0.0,87,0.00,,,0.00,VWS V13.01,2013-09-11 07:50:00,
2013-09-11 02:55:00,71.6,67.6,30.13,NNW,335,0.0,0.0,87,0.00,,,0.00,VWS V13.01,2013-09-11 07:55:00,
2013-09-11 03:00:00,71.6,67.2,30.13,NNW,335,0.0,0.0,86,0.00,,,0.00,VWS V13.01,2013-09-11 08:00:00,
2013-09-11 03:05:00,71.6,67.6,30.13,NNW,335,0.0,0.0,87,0.00,,,0.00,VWS V13.01,2013-09-11 08:05:00,
2013-09-11 03:11:00,71.6,67.6,30.13,NNW,335,0.0,0.0,87,0.00,,,0.00,VWS V13.01,2013-09-11 08:11:00,
2013-09-11 03:16:00,71.5,67.1,30.13,NNW,335,0.0,0.0,86,0.00,,,0.00,VWS V13.01,2013-09-11 08:16:00,
2013-09-11 03:21:00,71.5,67.1,30.13,NNW,335,0.0,0.0,86,0.00,,,0.00,VWS V13.01,2013-09-11 08:21:00,
2013-09-11 03:26:00,71.5,67.1,30.13,NNW,335,0.0,0.0,86,0.00,,,0.00,VWS V13.01,2013-09-11 08:26:00,
2013-09-11 03:31:00,71.5,67.1,30.13,NNW,335,0.0,0.0,86,0.00,,,0.00,VWS V13.01,2013-09-11 08:31:00,
2013-09-11 03:36:00,71.5,66.7,30.13,NNW,335,0.0,0.0,85,0.00,,,0.00,VWS V13.01,2013-09-11 08:36:00,
2013-09-11 03:41:00,71.3,66.9,30.13,NNW,335,0.0,0.0,86,0.00,,,0.00,VWS V13.01,2013-09-11 08:41:00,
2013-09-11 03:46:00,71.3,66.9,30.13,NNW,335,0.0,0.0,86,0.00,,,0.00,VWS V13.01,2013-09-11 08:46:00,
2013-09-11 03:51:00,71.3,66.9,30.13,NNW,335,0.0,0.0,86,0.00,,,0.00,VWS V13.01,2013-09-11 08:51:00,
2013-09-11 03:56:00,71.3,67.2,30.13,NNW,335,0.0,0.0,87,0.00,,,0.00,VWS V13.01,2013-09-11 08:56:00,
2013-09-11 04:01:00,71.3,67.9,30.13,NNW,335,0.0,0.0,89,0.00,,,0.00,VWS V13.01,2013-09-11 09:01:00,
2013-09-11 04:06:00,71.5,68.1,30.13,NNW,335,0.0,0.0,89,0.00,,,0.00,VWS V13.01,2013-09-11 09:06:00,
2013-09-11 04:11:00,71.5,67.4,30.13,NNE,32,0.0,0.0,87,0.00,,,0.00,VWS V13.01,2013-09-11 09:11:00,
2013-09-11 04:15:00,71.6,66.9,30.13,NNE,32,0.0,0.0,85,0.00,,,0.00,VWS V13.01,2013-09-11 09:15:00,
2013-09-11 04:20:00,71.8,67.1,30.13,NNE,32,0.0,0.0,85,0.00,,,0.00,VWS V13.01,2013-09-11 09:20:00,
2013-09-11 04:25:00,71.8,66.7,30.13,NNE,32,0.0,0.0,84,0.00,,,0.00,VWS V13.01,2013-09-11 09:25:00,
2013-09-11 04:30:00,72.0,66.6,30.13,WNW,303,0.0,0.0,83,0.00,,,0.00,VWS V13.01,2013-09-11 09:30:00,
2013-09-11 04:35:00,72.0,66.2,30.13,NNW,347,0.0,0.0,82,0.00,,,0.00,VWS V13.01,2013-09-11 09:35:00,
2013-09-11 04:40:00,72.0,66.2,30.13,NNW,347,0.0,0.0,82,0.00,,,0.00,VWS V13.01,2013-09-11 09:40:00,
2013-09-11 04:45:00,71.8,66.0,30.13,NNW,347,0.0,0.0,82,0.00,,,0.00,VWS V13.01,2013-09-11 09:45:00,
2013-09-11 04:50:00,71.8,66.0,30.13,NNW,347,0.0,0.0,82,0.00,,,0.00,VWS V13.01,2013-09-11 09:50:00,
2013-09-11 04:55:00,71.6,66.2,30.13,NNW,347,0.0,0.0,83,0.00,,,0.00,VWS V13.01,2013-09-11 09:55:00,
2013-09-11 05:00:00,71.5,66.0,30.13,NNW,347,0.0,0.0,83,0.00,,,0.00,VWS V13.01,2013-09-11 10:00:00,
2013-09-11 05:05:00,71.3,66.2,30.13,NNW,347,0.0,0.0,84,0.00,,,0.00,VWS V13.01,2013-09-11 10:05:00,
2013-09-11 05:10:00,71.3,65.9,30.13,NNW,347,0.0,0.0,83,0.00,,,0.00,VWS V13.01,2013-09-11 10:10:00,
2013-09-11 05:15:00,71.3,65.9,30.13,NNW,347,0.0,0.0,83,0.00,,,0.00,VWS V13.01,2013-09-11 10:15:00,
2013-09-11 05:20:00,71.1,65.7,30.13,NNW,347,0.0,0.0,83,0.00,,,0.00,VWS V13.01,2013-09-11 10:20:00,
2013-09-11 05:25:00,71.1,66.4,30.13,NNW,347,0.0,0.0,85,0.00,,,0.00,VWS V13.01,2013-09-11 10:25:00,
2013-09-11 05:30:00,70.9,66.9,30.13,NNW,347,0.0,0.0,87,0.00,,,0.00,VWS V13.01,2013-09-11 10:30:00,
2013-09-11 05:35:00,70.9,66.9,30.13,NNW,347,0.0,0.0,87,0.00,,,0.00,VWS V13.01,2013-09-11 10:35:00,
2013-09-11 05:40:00,70.7,66.7,30.13,NNW,347,0.0,0.0,87,0.00,,,0.00,VWS V13.01,2013-09-11 10:40:00,
2013-09-11 05:45:00,70.7,66.3,30.13,NNW,347,0.0,0.0,86,0.00,,,0.00,VWS V13.01,2013-09-11 10:45:00,
2013-09-11 05:50:00,70.7,66.3,30.13,NNW,347,0.0,0.0,86,0.00,,,0.00,VWS V13.01,2013-09-11 10:50:00,
2013-09-11 05:55:00,70.6,66.5,30.13,NNW,347,0.0,0.0,87,0.00,,,0.00,VWS V13.01,2013-09-11 10:55:00,
2013-09-11 06:00:00,70.4,66.3,30.13,NNW,347,0.0,0.0,87,0.00,,,0.00,VWS V13.01,2013-09-11 11:00:00,
2013-09-11 06:05:00,70.2,66.2,30.13,NNW,347,0.0,0.0,87,0.00,,,0.00,VWS V13.01,2013-09-11 11:05:00,
2013-09-11 06:10:00,70.0,66.3,30.13,NNW,347,0.0,0.0,88,0.00,,,0.00,VWS V13.01,2013-09-11 11:10:00,
2013-09-11 06:15:00,70.0,66.3,30.13,NNW,347,0.0,0.0,88,0.00,,,0.00,VWS V13.01,2013-09-11 11:15:00,
2013-09-11 06:20:00,69.8,66.5,30.13,NNW,347,0.0,0.0,89,0.00,,,0.00,VWS V13.01,2013-09-11 11:20:00,
2013-09-11 06:25:00,69.8,66.8,30.13,NNW,347,0.0,0.0,90,0.00,,,0.00,VWS V13.01,2013-09-11 11:25:00,
2013-09-11 06:30:00,69.7,67.2,30.13,NNW,344,0.0,0.0,92,0.00,,,0.00,VWS V13.01,2013-09-11 11:30:00,
2013-09-11 06:35:00,69.7,67.2,30.13,NNW,344,0.0,0.0,92,0.00,,,0.00,VWS V13.01,2013-09-11 11:35:00,
2013-09-11 06:40:00,69.5,67.1,30.13,NNW,344,0.0,0.0,92,0.00,,,0.00,VWS V13.01,2013-09-11 11:40:00,
2013-09-11 06:45:00,69.5,67.1,30.13,NNW,344,0.0,0.0,92,0.00,,,0.00,VWS V13.01,2013-09-11 11:45:00,
2013-09-11 06:50:00,69.3,66.9,30.13,NNW,344,0.0,0.0,92,0.00,,,0.00,VWS V13.01,2013-09-11 11:50:00,
2013-09-11 06:55:00,69.3,66.9,30.13,NNW,344,0.0,0.0,92,0.00,,,0.00,VWS V13.01,2013-09-11 11:55:00,
2013-09-11 07:00:00,69.1,67.0,30.16,NNW,344,0.0,0.0,93,0.00,,,0.00,VWS V13.01,2013-09-11 12:00:00,
2013-09-11 07:05:00,69.3,67.8,30.16,NNW,344,0.0,0.0,95,0.00,,,0.00,VWS V13.01,2013-09-11 12:05:00,
2013-09-11 07:10:00,69.5,68.3,30.16,NNW,344,0.0,0.0,96,0.00,,,0.00,VWS V13.01,2013-09-11 12:10:00,
2013-09-11 07:15:00,69.5,68.3,30.13,NNW,344,0.0,0.0,96,0.00,,,0.00,VWS V13.01,2013-09-11 12:15:00,
2013-09-11 07:20:00,69.5,68.3,30.13,NNW,344,0.0,0.0,96,0.00,,,0.00,VWS V13.01,2013-09-11 12:20:00,
2013-09-11 07:25:00,69.5,68.3,30.13,NNW,344,0.0,0.0,96,0.00,,,0.00,VWS V13.01,2013-09-11 12:25:00,
2013-09-11 07:30:00,69.7,68.5,30.16,NNW,344,0.0,0.0,96,0.00,,,0.00,VWS V13.01,2013-09-11 12:30:00,
2013-09-11 07:35:00,69.7,68.8,30.16,NNW,344,0.0,0.0,97,0.00,,,0.00,VWS V13.01,2013-09-11 12:35:00,
2013-09-11 07:40:00,69.8,68.9,30.16,NNE,30,0.0,0.0,97,0.00,,,0.00,VWS V13.01,2013-09-11 12:40:00,
2013-09-11 07:45:00,70.2,69.3,30.16,NNE,30,0.0,0.0,97,0.00,,,0.00,VWS V13.01,2013-09-11 12:45:00,
2013-09-11 07:50:00,70.4,68.9,30.16,NNE,30,0.0,0.0,95,0.00,,,0.00,VWS V13.01,2013-09-11 12:50:00,
2013-09-11 07:55:00,70.7,69.2,30.16,NNE,30,0.0,0.0,95,0.00,,,0.00,VWS V13.01,2013-09-11 12:55:00,
2013-09-11 08:00:00,71.1,69.3,30.16,NNE,30,0.0,0.0,94,0.00,,,0.00,VWS V13.01,2013-09-11 13:00:00,
2013-09-11 08:05:00,71.8,69.4,30.16,NNE,30,0.0,0.0,92,0.00,,,0.00,VWS V13.01,2013-09-11 13:05:00,
2013-09-11 08:10:00,72.7,70.3,30.16,NNE,30,0.0,0.0,92,0.00,,,0.00,VWS V13.01,2013-09-11 13:10:00,
2013-09-11 08:15:00,73.4,68.7,30.16,NNE,30,0.0,0.0,85,0.00,,,0.00,VWS V13.01,2013-09-11 13:15:00,
2013-09-11 08:20:00,74.5,69.0,30.16,NNE,30,0.0,0.0,83,0.00,,,0.00,VWS V13.01,2013-09-11 13:20:00,
2013-09-11 08:25:00,75.4,68.8,30.16,NNE,30,0.0,0.0,80,0.00,,,0.00,VWS V13.01,2013-09-11 13:25:00,
2013-09-11 08:30:00,76.0,67.1,30.16,NNE,30,0.0,0.0,74,0.00,,,0.00,VWS V13.01,2013-09-11 13:30:00,
2013-09-11 08:35:00,76.9,67.2,30.16,East,80,2.7,2.7,72,0.00,,,0.00,VWS V13.01,2013-09-11 13:35:00,
2013-09-11 08:40:00,77.0,66.5,30.16,North,8,0.0,2.2,70,0.00,,,0.00,VWS V13.01,2013-09-11 13:40:00,
2013-09-11 08:45:00,77.6,67.0,30.16,North,8,0.0,0.0,70,0.00,,,0.00,VWS V13.01,2013-09-11 13:45:00,
2013-09-11 08:50:00,78.1,67.1,30.16,North,8,0.0,0.0,69,0.00,,,0.00,VWS V13.01,2013-09-11 13:50:00,
2013-09-11 08:55:00,78.7,67.2,30.16,North,10,0.0,0.0,68,0.00,,,0.00,VWS V13.01,2013-09-11 13:55:00,
2013-09-11 09:00:00,79.2,67.7,30.16,North,10,0.0,0.0,68,0.00,,,0.00,VWS V13.01,2013-09-11 14:00:00,
2013-09-11 09:05:00,79.6,67.7,30.16,North,10,0.0,0.0,67,0.00,,,0.00,VWS V13.01,2013-09-11 14:05:00,
2013-09-11 09:10:00,79.7,67.4,30.16,NNW,339,0.0,0.0,66,0.00,,,0.00,VWS V13.01,2013-09-11 14:10:00,
2013-09-11 09:15:00,80.1,66.8,30.16,NNW,331,0.0,0.0,64,0.00,,,0.00,VWS V13.01,2013-09-11 14:15:00,
2013-09-11 09:20:00,80.5,67.2,30.16,NNW,333,2.2,2.7,64,0.00,,,0.00,VWS V13.01,2013-09-11 14:20:00,
2013-09-11 09:25:00,81.0,67.7,30.16,NNE,14,0.0,0.0,64,0.00,,,0.00,VWS V13.01,2013-09-11 14:25:00,
2013-09-11 09:30:00,81.7,67.4,30.16,NNE,19,2.7,2.7,62,0.00,,,0.00,VWS V13.01,2013-09-11 14:30:00,
2013-09-11 09:35:00,82.3,67.5,30.16,East,84,0.0,0.0,61,0.00,,,0.00,VWS V13.01,2013-09-11 14:35:00,
2013-09-11 09:40:00,82.6,67.3,30.16,ESE,114,0.0,0.0,60,0.00,,,0.00,VWS V13.01,2013-09-11 14:40:00,
2013-09-11 09:45:00,82.6,67.8,30.16,SSE,155,0.0,0.0,61,0.00,,,0.00,VWS V13.01,2013-09-11 14:45:00,
2013-09-11 09:50:00,82.4,67.7,30.16,South,178,0.0,0.0,61,0.00,,,0.00,VWS V13.01,2013-09-11 14:50:00,
2013-09-11 09:55:00,82.6,67.8,30.16,South,177,2.7,2.7,61,0.00,,,0.00,VWS V13.01,2013-09-11 14:55:00,
2013-09-11 10:00:00,82.4,67.7,30.16,WNW,302,2.2,2.2,61,0.00,,,0.00,VWS V13.01,2013-09-11 15:00:00,
2013-09-11 10:05:00,82.8,68.5,30.16,SSW,199,0.0,2.7,62,0.00,,,0.00,VWS V13.01,2013-09-11 15:05:00,
2013-09-11 10:10:00,83.2,68.3,30.16,South,179,0.0,2.7,61,0.00,,,0.00,VWS V13.01,2013-09-11 15:10:00,
2013-09-11 10:15:00,83.9,69.0,30.16,ESE,111,0.0,2.7,61,0.00,,,0.00,VWS V13.01,2013-09-11 15:15:00,
2013-09-11 10:20:00,85.1,69.2,30.16,South,178,4.0,4.0,59,0.00,,,0.00,VWS V13.01,2013-09-11 15:20:00,
2013-09-11 10:25:00,85.7,69.7,30.16,South,179,2.2,2.7,59,0.00,,,0.00,VWS V13.01,2013-09-11 15:25:00,
2013-09-11 10:30:00,85.7,69.2,30.16,SSE,166,2.7,3.1,58,0.00,,,0.00,VWS V13.01,2013-09-11 15:30:00,
2013-09-11 10:35:00,85.9,69.9,30.16,SE,132,2.7,2.7,59,0.00,,,0.00,VWS V13.01,2013-09-11 15:35:00,
2013-09-11 10:40:00,86.4,69.9,30.16,SSE,147,0.0,0.0,58,0.00,,,0.00,VWS V13.01,2013-09-11 15:40:00,
2013-09-11 10:45:00,86.8,70.2,30.16,SW,224,2.7,3.6,58,0.00,,,0.00,VWS V13.01,2013-09-11 15:45:00,
2013-09-11 10:50:00,86.8,70.2,30.16,South,171,2.7,4.9,58,0.00,,,0.00,VWS V13.01,2013-09-11 15:50:00,
2013-09-11 10:55:00,86.8,70.2,30.16,East,81,2.2,3.6,58,0.00,,,0.00,VWS V13.01,2013-09-11 15:55:00,
2013-09-11 11:00:00,86.9,69.9,30.16,SSE,151,3.6,4.9,57,0.00,,,0.00,VWS V13.01,2013-09-11 16:00:00,
2013-09-11 11:05:00,87.1,70.1,30.16,ESE,115,2.7,3.6,57,0.00,,,0.00,VWS V13.01,2013-09-11 16:05:00,
2013-09-11 11:10:00,87.8,70.2,30.16,South,182,4.0,4.9,56,0.00,,,0.00,VWS V13.01,2013-09-11 16:10:00,
2013-09-11 11:15:00,88.0,70.4,30.16,South,182,4.0,4.0,56,0.00,,,0.00,VWS V13.01,2013-09-11 16:15:00,
2013-09-11 11:20:00,88.4,70.7,30.16,SE,131,3.1,3.6,56,0.00,,,0.00,VWS V13.01,2013-09-11 16:20:00,
2013-09-11 11:25:00,88.6,70.3,30.16,East,98,2.7,2.7,55,0.00,,,0.00,VWS V13.01,2013-09-11 16:25:00,
2013-09-11 11:30:00,88.4,69.1,30.16,SW,233,4.0,4.0,53,0.00,,,0.00,VWS V13.01,2013-09-11 16:30:00,
2013-09-11 11:35:00,88.2,68.9,30.16,South,169,2.7,4.0,53,0.00,,,0.00,VWS V13.01,2013-09-11 16:35:00,
2013-09-11 11:40:00,88.2,68.9,30.16,South,176,4.0,4.0,53,0.00,,,0.00,VWS V13.01,2013-09-11 16:40:00,
2013-09-11 11:45:00,88.7,69.4,30.16,ESE,108,0.0,3.1,53,0.00,,,0.00,VWS V13.01,2013-09-11 16:45:00,
2013-09-11 11:50:00,89.1,69.2,30.16,West,259,2.7,3.6,52,0.00,,,0.00,VWS V13.01,2013-09-11 16:50:00,
2013-09-11 11:55:00,89.1,68.6,30.16,South,181,2.7,3.6,51,0.00,,,0.00,VWS V13.01,2013-09-11 16:55:00,
2013-09-11 12:00:00,89.5,68.4,30.16,West,273,0.0,2.7,50,0.00,,,0.00,VWS V13.01,2013-09-11 17:00:00,
2013-09-11 12:05:00,90.4,69.8,30.16,ESE,121,3.1,3.1,51,0.00,,,0.00,VWS V13.01,2013-09-11 17:05:00,
2013-09-11 12:10:00,91.3,69.4,30.16,WSW,249,3.6,3.6,49,0.00,,,0.00,VWS V13.01,2013-09-11 17:10:00,
2013-09-11 12:15:00,91.1,69.9,30.16,South,173,2.7,4.5,50,0.00,,,0.00,VWS V13.01,2013-09-11 17:15:00,
2013-09-11 12:20:00,90.9,68.5,30.16,SSE,154,4.0,4.0,48,0.00,,,0.00,VWS V13.01,2013-09-11 17:20:00,
2013-09-11 12:25:00,91.3,68.8,30.16,WNW,292,0.0,0.0,48,0.00,,,0.00,VWS V13.01,2013-09-11 17:25:00,
2013-09-11 12:30:00,91.6,69.2,30.16,NE,54,0.0,2.7,48,0.00,,,0.00,VWS V13.01,2013-09-11 17:30:00,
2013-09-11 12:35:00,92.3,69.2,30.16,ENE,77,2.7,3.6,47,0.00,,,0.00,VWS V13.01,2013-09-11 17:35:00,
2013-09-11 12:40:00,92.5,69.4,30.16,ESE,106,4.0,4.9,47,0.00,,,0.00,VWS V13.01,2013-09-11 17:40:00,
2013-09-11 12:45:00,92.5,69.4,30.16,SE,128,2.7,4.0,47,0.00,,,0.00,VWS V13.01,2013-09-11 17:45:00,
2013-09-11 12:50:00,92.7,68.9,30.16,South,178,3.1,3.1,46,0.00,,,0.00,VWS V13.01,2013-09-11 17:50:00,
2013-09-11 12:55:00,92.7,68.9,30.16,South,175,4.5,4.9,46,0.00,,,0.00,VWS V13.01,2013-09-11 17:55:00,
2013-09-11 13:00:00,92.7,68.9,30.13,SE,126,4.0,4.9,46,0.00,,,0.00,VWS V13.01,2013-09-11 18:00:00,
2013-09-11 13:05:00,92.3,68.6,30.13,ESE,107,2.7,2.7,46,0.00,,,0.00,VWS V13.01,2013-09-11 18:05:00,
2013-09-11 13:10:00,92.9,69.1,30.13,SSE,150,5.4,5.8,46,0.00,,,0.00,VWS V13.01,2013-09-11 18:10:00,
2013-09-11 13:15:00,93.1,69.2,30.13,South,181,5.4,5.4,46,0.00,,,0.00,VWS V13.01,2013-09-11 18:15:00,
2013-09-11 13:20:00,93.4,69.6,30.13,NNW,340,2.2,2.7,46,0.00,,,0.00,VWS V13.01,2013-09-11 18:20:00,
2013-09-11 13:25:00,94.1,70.2,30.13,SSE,156,5.8,6.3,46,0.00,,,0.00,VWS V13.01,2013-09-11 18:25:00,
2013-09-11 13:30:00,93.6,69.7,30.13,South,175,2.7,3.6,46,0.00,,,0.00,VWS V13.01,2013-09-11 18:30:00,
2013-09-11 13:35:00,93.4,69.6,30.13,SE,143,3.1,3.1,46,0.00,,,0.00,VWS V13.01,2013-09-11 18:35:00,
2013-09-11 13:40:00,93.2,69.4,30.13,South,179,4.0,4.0,46,0.00,,,0.00,VWS V13.01,2013-09-11 18:40:00,
2013-09-11 13:45:00,92.9,69.1,30.13,ESE,122,2.7,3.6,46,0.00,,,0.00,VWS V13.01,2013-09-11 18:45:00,
2013-09-11 13:50:00,93.8,69.9,30.13,East,96,2.2,3.1,46,0.00,,,0.00,VWS V13.01,2013-09-11 18:50:00,
2013-09-11 13:55:00,94.5,69.9,30.13,SSE,160,3.1,3.6,45,0.00,,,0.00,VWS V13.01,2013-09-11 18:55:00,
2013-09-11 13:59:00,94.5,69.9,30.10,SSW,192,5.4,5.4,45,0.00,,,0.00,VWS V13.01,2013-09-11 18:59:00,
2013-09-11 14:04:00,94.1,70.2,30.10,SSW,193,5.4,5.4,46,0.00,,,0.00,VWS V13.01,2013-09-11 19:04:00,
2013-09-11 14:09:00,93.4,69.6,30.10,South,188,3.6,5.4,46,0.00,,,0.00,VWS V13.01,2013-09-11 19:09:00,
2013-09-11 14:14:00,92.5,69.4,30.10,SSE,168,4.0,7.6,47,0.00,,,0.00,VWS V13.01,2013-09-11 19:14:00,
2013-09-11 14:19:00,92.2,69.0,30.10,South,179,4.0,4.0,47,0.00,,,0.00,VWS V13.01,2013-09-11 19:19:00,
2013-09-11 14:24:00,92.5,69.4,30.10,WSW,250,4.9,7.6,47,0.00,,,0.00,VWS V13.01,2013-09-11 19:24:00,
2013-09-11 14:29:00,93.1,69.9,30.10,SSE,165,5.8,5.8,47,0.00,,,0.00,VWS V13.01,2013-09-11 19:29:00,
2013-09-11 14:34:00,93.2,69.4,30.10,SSE,150,7.6,7.6,46,0.00,,,0.00,VWS V13.01,2013-09-11 19:34:00,
2013-09-11 14:39:00,93.2,69.4,30.10,SSW,193,3.6,5.4,46,0.00,,,0.00,VWS V13.01,2013-09-11 19:39:00,
2013-09-11 14:44:00,93.8,69.9,30.10,SSW,201,2.7,4.0,46,0.00,,,0.00,VWS V13.01,2013-09-11 19:44:00,
2013-09-11 14:49:00,94.1,70.2,30.10,South,171,4.9,4.9,46,0.00,,,0.00,VWS V13.01,2013-09-11 19:49:00,
2013-09-11 14:54:00,94.3,71.0,30.10,SW,226,5.4,5.4,47,0.00,,,0.00,VWS V13.01,2013-09-11 19:54:00,
2013-09-11 14:59:00,93.8,70.5,30.10,WSW,258,6.3,6.3,47,0.00,,,0.00,VWS V13.01,2013-09-11 19:59:00,
2013-09-11 15:04:00,93.2,69.4,30.10,SW,222,5.8,5.8,46,0.00,,,0.00,VWS V13.01,2013-09-11 20:04:00,
2013-09-11 15:09:00,93.2,69.4,30.10,WSW,251,3.1,4.0,46,0.00,,,0.00,VWS V13.01,2013-09-11 20:09:00,
2013-09-11 15:14:00,93.4,69.6,30.10,WSW,245,2.7,2.7,46,0.00,,,0.00,VWS V13.01,2013-09-11 20:14:00,
2013-09-11 15:19:00,94.1,70.2,30.10,SW,228,6.7,6.7,46,0.00,,,0.00,VWS V13.01,2013-09-11 20:19:00,
2013-09-11 15:24:00,94.3,70.4,30.10,South,173,5.4,5.4,46,0.00,,,0.00,VWS V13.01,2013-09-11 20:24:00,
2013-09-11 15:29:00,94.7,70.7,30.07,South,170,2.7,2.7,46,0.00,,,0.00,VWS V13.01,2013-09-11 20:29:00,
2013-09-11 15:34:00,94.9,70.2,30.07,SSW,197,2.2,2.2,45,0.00,,,0.00,VWS V13.01,2013-09-11 20:34:00,
2013-09-11 15:39:00,95.2,70.5,30.07,East,89,2.2,2.2,45,0.00,,,0.00,VWS V13.01,2013-09-11 20:39:00,
2013-09-11 15:44:00,95.6,70.9,30.10,SSE,147,3.1,3.6,45,0.00,,,0.00,VWS V13.01,2013-09-11 20:44:00,
2013-09-11 15:49:00,95.8,71.0,30.10,NE,36,6.3,6.3,45,0.00,,,0.00,VWS V13.01,2013-09-11 20:49:00,
2013-09-11 15:54:00,94.5,69.9,30.10,East,84,2.7,2.7,45,0.00,,,0.00,VWS V13.01,2013-09-11 20:54:00,
2013-09-11 15:59:00,93.1,68.6,30.07,ENE,60,4.9,4.9,45,0.00,,,0.00,VWS V13.01,2013-09-11 20:59:00,
2013-09-11 16:04:00,91.8,68.1,30.07,NE,37,3.6,3.6,46,0.00,,,0.00,VWS V13.01,2013-09-11 21:04:00,
2013-09-11 16:09:00,91.8,68.7,30.07,NE,41,3.6,3.6,47,0.00,,,0.00,VWS V13.01,2013-09-11 21:09:00,
2013-09-11 16:14:00,91.8,68.7,30.07,North,10,6.3,6.3,47,0.00,,,0.00,VWS V13.01,2013-09-11 21:14:00,
2013-09-11 16:19:00,91.4,68.4,30.07,NE,38,4.5,7.6,47,0.00,,,0.00,VWS V13.01,2013-09-11 21:19:00,
2013-09-11 16:24:00,91.8,68.7,30.07,NNE,17,2.7,2.7,47,0.00,,,0.00,VWS V13.01,2013-09-11 21:24:00,
2013-09-11 16:29:00,92.3,69.2,30.07,NNW,332,3.6,3.6,47,0.00,,,0.00,VWS V13.01,2013-09-11 21:29:00,
2013-09-11 16:34:00,90.9,68.5,30.07,NW,320,11.0,11.0,48,0.00,,,0.00,VWS V13.01,2013-09-11 21:34:00,
2013-09-11 16:39:00,88.4,69.6,30.07,NNE,19,3.6,4.0,54,0.00,,,0.00,VWS V13.01,2013-09-11 21:39:00,
2013-09-11 16:44:00,88.9,69.6,30.10,NNW,336,5.8,8.1,53,0.00,,,0.00,VWS V13.01,2013-09-11 21:44:00,
2013-09-11 16:49:00,88.7,70.5,30.10,NNE,26,3.1,4.9,55,0.00,,,0.00,VWS V13.01,2013-09-11 21:49:00,
2013-09-11 16:54:00,88.7,70.5,30.10,NE,52,4.9,5.4,55,0.00,,,0.00,VWS V13.01,2013-09-11 21:54:00,
2013-09-11 16:59:00,88.6,69.8,30.10,ESE,109,6.3,7.6,54,0.00,,,0.00,VWS V13.01,2013-09-11 21:59:00,
2013-09-11 17:04:00,88.2,69.5,30.10,NE,34,6.3,10.1,54,0.00,,,0.00,VWS V13.01,2013-09-11 22:04:00,
2013-09-11 17:09:00,87.3,68.6,30.10,ESE,107,4.9,7.2,54,0.00,,,0.00,VWS V13.01,2013-09-11 22:09:00,
2013-09-11 17:14:00,86.8,69.2,30.10,North,11,5.8,5.8,56,0.00,,,0.00,VWS V13.01,2013-09-11 22:14:00,
2013-09-11 17:19:00,85.9,68.9,30.10,ESE,116,5.4,10.5,57,0.00,,,0.00,VWS V13.01,2013-09-11 22:19:00,
2013-09-11 17:24:00,85.3,68.9,30.10,NNE,26,8.1,8.1,58,0.00,,,0.00,VWS V13.01,2013-09-11 22:24:00,
2013-09-11 17:29:00,84.6,68.2,30.10,NNE,30,7.6,11.9,58,0.00,,,0.00,VWS V13.01,2013-09-11 22:29:00,
2013-09-11 17:34:00,84.1,68.2,30.10,NNE,28,5.8,8.3,59,0.00,,,0.00,VWS V13.01,2013-09-11 22:34:00,
2013-09-11 17:39:00,83.7,67.9,30.10,NE,43,7.2,7.2,59,0.00,,,0.00,VWS V13.01,2013-09-11 22:39:00,
2013-09-11 17:44:00,83.7,67.9,30.10,NE,43,5.4,5.4,59,0.00,,,0.00,VWS V13.01,2013-09-11 22:44:00,
2013-09-11 17:49:00,83.5,67.7,30.10,NNE,20,6.3,8.1,59,0.00,,,0.00,VWS V13.01,2013-09-11 22:49:00,
2013-09-11 17:54:00,83.2,67.4,30.10,NNE,27,4.0,5.4,59,0.00,,,0.00,VWS V13.01,2013-09-11 22:54:00,
2013-09-11 17:59:00,83.3,67.5,30.10,NE,47,6.3,9.6,59,0.00,,,0.00,VWS V13.01,2013-09-11 22:59:00,
2013-09-11 18:04:00,82.6,66.8,30.10,NE,38,5.4,5.8,59,0.00,,,0.00,VWS V13.01,2013-09-11 23:04:00,
2013-09-11 18:09:00,82.1,67.3,30.10,NNE,21,3.6,4.5,61,0.00,,,0.00,VWS V13.01,2013-09-11 23:09:00,
2013-09-11 18:14:00,82.3,67.0,30.10,NE,40,2.2,3.6,60,0.00,,,0.00,VWS V13.01,2013-09-11 23:14:00,
2013-09-11 18:19:00,82.3,67.0,30.10,NE,39,6.3,6.3,60,0.00,,,0.00,VWS V13.01,2013-09-11 23:19:00,
2013-09-11 18:24:00,82.3,67.5,30.10,NE,34,4.9,5.4,61,0.00,,,0.00,VWS V13.01,2013-09-11 23:24:00,
2013-09-11 18:29:00,82.3,67.5,30.10,ENE,64,3.1,4.9,61,0.00,,,0.00,VWS V13.01,2013-09-11 23:29:00,
2013-09-11 18:34:00,82.1,66.8,30.10,North,350,7.6,7.6,60,0.00,,,0.00,VWS V13.01,2013-09-11 23:34:00,
2013-09-11 18:39:00,82.1,67.3,30.10,SSE,147,4.9,4.9,61,0.00,,,0.00,VWS V13.01,2013-09-11 23:39:00,
2013-09-11 18:44:00,81.9,67.1,30.10,NE,40,3.1,4.0,61,0.00,,,0.00,VWS V13.01,2013-09-11 23:44:00,
2013-09-11 18:49:00,81.7,67.4,30.10,ENE,77,3.1,4.0,62,0.00,,,0.00,VWS V13.01,2013-09-11 23:49:00,
2013-09-11 18:54:00,81.7,67.0,30.10,NE,44,3.1,5.4,61,0.00,,,0.00,VWS V13.01,2013-09-11 23:54:00,
2013-09-11 18:59:00,81.5,67.3,30.10,SE,124,4.0,4.0,62,0.00,,,0.00,VWS V13.01,2013-09-11 23:59:00,
2013-09-11 19:04:00,81.4,67.1,30.10,ESE,106,2.7,2.7,62,0.00,,,0.00,VWS V13.01,2013-09-12 00:04:00,
2013-09-11 19:09:00,81.2,66.9,30.10,ENE,71,0.0,2.7,62,0.00,,,0.00,VWS V13.01,2013-09-12 00:09:00,
2013-09-11 19:14:00,80.8,67.1,30.07,ESE,116,2.2,2.7,63,0.00,,,0.00,VWS V13.01,2013-09-12 00:14:00,
2013-09-11 19:19:00,80.5,66.7,30.07,East,81,3.1,3.6,63,0.00,,,0.00,VWS V13.01,2013-09-12 00:19:00,
2013-09-11 19:24:00,80.1,66.8,30.07,ENE,78,2.2,2.7,64,0.00,,,0.00,VWS V13.01,2013-09-12 00:24:00,
2013-09-11 19:29:00,79.7,66.9,30.10,NE,52,0.0,0.0,65,0.00,,,0.00,VWS V13.01,2013-09-12 00:29:00,
2013-09-11 19:34:00,79.7,66.9,30.10,NE,52,0.0,0.0,65,0.00,,,0.00,VWS V13.01,2013-09-12 00:34:00,
2013-09-11 19:39:00,79.4,66.6,30.10,SE,131,3.1,3.1,65,0.00,,,0.00,VWS V13.01,2013-09-12 00:39:00,
2013-09-11 19:44:00,79.2,66.9,30.10,East,94,2.7,3.1,66,0.00,,,0.00,VWS V13.01,2013-09-12 00:44:00,
2013-09-11 19:49:00,78.8,67.0,30.10,ENE,75,0.0,0.0,67,0.00,,,0.00,VWS V13.01,2013-09-12 00:49:00,
2013-09-11 19:54:00,78.7,66.8,30.10,East,86,0.0,0.0,67,0.00,,,0.00,VWS V13.01,2013-09-12 00:54:00,
2013-09-11 19:59:00,78.5,67.1,30.07,East,87,2.7,2.7,68,0.00,,,0.00,VWS V13.01,2013-09-12 00:59:00,
2013-09-11 20:04:00,78.5,67.1,30.07,East,79,0.0,0.0,68,0.00,,,0.00,VWS V13.01,2013-09-12 01:04:00,
2013-09-11 20:09:00,78.3,66.9,30.07,East,79,0.0,0.0,68,0.00,,,0.00,VWS V13.01,2013-09-12 01:09:00,
2013-09-11 20:14:00,78.3,66.9,30.10,East,79,0.0,0.0,68,0.00,,,0.00,VWS V13.01,2013-09-12 01:14:00,
2013-09-11 20:19:00,78.1,67.1,30.10,East,79,0.0,0.0,69,0.00,,,0.00,VWS V13.01,2013-09-12 01:19:00,
2013-09-11 20:24:00,77.9,67.0,30.10,East,79,0.0,0.0,69,0.00,,,0.00,VWS V13.01,2013-09-12 01:24:00,
2013-09-11 20:29:00,77.8,66.8,30.10,East,79,0.0,0.0,69,0.00,,,0.00,VWS V13.01,2013-09-12 01:29:00,
2013-09-11 20:33:00,77.6,67.0,30.10,East,79,0.0,0.0,70,0.00,,,0.00,VWS V13.01,2013-09-12 01:33:00,
2013-09-11 20:38:00,77.6,67.0,30.10,East,79,0.0,0.0,70,0.00,,,0.00,VWS V13.01,2013-09-12 01:38:00,
2013-09-11 20:43:00,77.6,67.4,30.10,East,79,0.0,0.0,71,0.00,,,0.00,VWS V13.01,2013-09-12 01:43:00,
2013-09-11 20:48:00,77.6,67.4,30.10,East,79,0.0,0.0,71,0.00,,,0.00,VWS V13.01,2013-09-12 01:48:00,
2013-09-11 20:53:00,77.4,67.7,30.10,East,79,0.0,0.0,72,5.00,,,0.00,VWS V13.01,2013-09-12 01:53:00,
2013-09-11 20:58:00,77.2,67.1,30.10,East,79,0.0,0.0,71,5.00,,,0.00,VWS V13.01,2013-09-12 01:58:00,
2013-09-11 21:03:00,76.9,67.6,30.10,East,79,0.0,0.0,73,0.78,,,11.22,VWS V13.01,2013-09-12 02:03:00,
2013-09-11 21:08:00,76.7,67.4,30.10,East,79,0.0,0.0,73,1.28,,,0.00,VWS V13.01,2013-09-12 02:08:00,
2013-09-11 21:14:00,76.5,67.6,30.10,East,79,0.0,0.0,74,1.28,,,0.00,VWS V13.01,2013-09-12 02:14:00,
2013-09-11 21:19:00,76.1,67.3,30.10,East,79,0.0,0.0,74,1.28,,,0.00,VWS V13.01,2013-09-12 02:19:00,
2013-09-11 21:24:00,76.0,67.1,30.10,East,79,0.0,0.0,74,1.28,,,0.00,VWS V13.01,2013-09-12 02:24:00,
2013-09-11 21:28:00,75.6,67.1,30.13,East,79,0.0,0.0,75,1.28,,,0.00,VWS V13.01,2013-09-12 02:28:00,
2013-09-11 21:33:00,75.6,67.1,30.13,East,79,0.0,0.0,75,1.28,,,0.00,VWS V13.01,2013-09-12 02:33:00,
2013-09-11 21:38:00,75.2,67.5,30.13,East,79,0.0,0.0,77,1.28,,,0.00,VWS V13.01,2013-09-12 02:38:00,
2013-09-11 21:43:00,74.9,67.6,30.13,East,79,0.0,0.0,78,1.28,,,0.00,VWS V13.01,2013-09-12 02:43:00,
2013-09-11 21:48:00,74.9,67.9,30.13,East,79,0.0,0.0,79,1.28,,,0.00,VWS V13.01,2013-09-12 02:48:00,
2013-09-11 21:53:00,74.9,68.3,30.13,East,79,0.0,0.0,80,1.28,,,0.00,VWS V13.01,2013-09-12 02:53:00,
2013-09-11 21:58:00,74.9,68.3,30.13,East,79,0.0,0.0,80,0.00,,,0.00,VWS V13.01,2013-09-12 02:58:00,
2013-09-11 22:03:00,74.9,68.7,30.13,East,79,0.0,0.0,81,0.00,,,0.00,VWS V13.01,2013-09-12 03:03:00,
2013-09-11 22:08:00,74.9,68.7,30.13,East,79,0.0,0.0,81,0.00,,,0.00,VWS V13.01,2013-09-12 03:08:00,
2013-09-11 22:13:00,74.9,68.3,30.13,North,353,0.0,0.0,80,0.00,,,0.00,VWS V13.01,2013-09-12 03:13:00,
2013-09-11 22:18:00,74.7,68.1,30.13,North,353,0.0,0.0,80,0.00,,,0.00,VWS V13.01,2013-09-12 03:18:00,
2013-09-11 22:23:00,74.5,68.3,30.13,North,353,0.0,0.0,81,0.00,,,0.00,VWS V13.01,2013-09-12 03:23:00,
2013-09-11 22:28:00,74.3,67.8,30.13,NE,38,0.0,0.0,80,0.00,,,0.00,VWS V13.01,2013-09-12 03:28:00,
2013-09-11 22:33:00,74.0,67.8,30.13,NE,38,0.0,0.0,81,0.00,,,0.00,VWS V13.01,2013-09-12 03:33:00,
2013-09-11 22:39:00,73.6,68.1,30.13,NE,38,0.0,0.0,83,0.00,,,0.00,VWS V13.01,2013-09-12 03:39:00,
2013-09-11 22:44:00,73.4,68.3,30.13,NE,38,0.0,0.0,84,0.00,,,0.00,VWS V13.01,2013-09-12 03:44:00,
2013-09-11 22:49:00,73.4,69.0,30.13,NNE,26,0.0,0.0,86,0.00,,,0.00,VWS V13.01,2013-09-12 03:49:00,
2013-09-11 22:54:00,73.3,68.8,30.13,NNE,25,0.0,0.0,86,0.00,,,0.00,VWS V13.01,2013-09-12 03:54:00,
2013-09-11 22:59:00,73.3,68.8,30.10,NNE,25,0.0,0.0,86,0.00,,,0.00,VWS V13.01,2013-09-12 03:59:00,
2013-09-11 23:01:00,73.3,69.2,30.10,NNE,25,0.0,0.0,87,0.00,,,0.00,VWS V13.01,2013-09-12 04:01:00,
2013-09-11 23:06:00,73.1,68.7,30.10,ESE,118,0.0,0.0,86,0.00,,,0.00,VWS V13.01,2013-09-12 04:06:00,
2013-09-11 23:11:00,72.9,69.1,30.10,ESE,118,0.0,0.0,88,0.00,,,0.00,VWS V13.01,2013-09-12 04:11:00,
2013-09-11 23:16:00,72.7,69.0,30.10,ESE,118,0.0,0.0,88,0.00,,,0.00,VWS V13.01,2013-09-12 04:16:00,
2013-09-11 23:21:00,72.5,68.4,30.10,ESE,118,0.0,0.0,87,0.00,,,0.00,VWS V13.01,2013-09-12 04:21:00,
2013-09-11 23:26:00,72.4,68.6,30.10,ESE,118,0.0,0.0,88,0.00,,,0.00,VWS V13.01,2013-09-12 04:26:00,
2013-09-11 23:31:00,72.4,68.6,30.13,ESE,118,0.0,0.0,88,0.00,,,0.00,VWS V13.01,2013-09-12 04:31:00,
2013-09-11 23:36:00,72.2,69.1,30.13,ESE,118,0.0,0.0,90,0.00,,,0.00,VWS V13.01,2013-09-12 04:36:00,
2013-09-11 23:41:00,72.2,69.4,30.13,ESE,118,0.0,0.0,91,0.00,,,0.00,VWS V13.01,2013-09-12 04:41:00,
2013-09-11 23:46:00,72.2,69.4,30.13,ESE,118,0.0,0.0,91,0.00,,,0.00,VWS V13.01,2013-09-12 04:46:00,
2013-09-11 23:51:00,72.2,69.7,30.13,ESE,118,0.0,0.0,92,0.00,,,0.00,VWS V13.01,2013-09-12 04:51:00,
2013-09-11 23:56:00,72.2,69.7,30.13,ESE,118,0.0,0.0,92,0.00,,,0.00,VWS V13.01,2013-09-12 04:56:00,